Location: Bavegemberg
(50.9500°N, 3.8833°E)
Time: 13:44:42
(UTC+00:00)

NOSS 3-4 (C) - Pass Details

Date: 23 May 2024
Orbit: 814 x 1397 km, 63.4° (Epoch: 04 June)

Event Time Altitude Azimuth Distance (km) Brightness Sun altitude
Rises 00:32:54 0° 314° (NW) 3,757 7.0 -17.5°
Reaches altitude 10° 00:35:25 10° 310° (NW) 2,882 6.3 -17.4°
Maximum altitude 00:42:02 51° 237° (WSW) 1,437 4.1 -17.2°
Enters shadow 00:47:18 20° 170° (S) 2,534 5.1 -16.9°
